DW9556 Weather Reports


time (UTC)temp
C
wind
direction
speed
KPH
gust
KPH
rain 1hr
cm
rain 24hr
cm
rain mn
cm
humidity
%
barometer
mb
20260504034519 13 192 0.0 0.0 0.00 0.00 0.00 68 1006.3
20260504033017 13 181 0.0 0.0 0.00 0.00 0.00 68 1006.4
20260504031559 13 182 0.0 0.0 0.00 0.00 0.00 68 1006.5
20260504030057 13 246 0.0 0.0 0.00 0.00 0.00 69 1006.6
20260504024546 14 247 0.0 0.0 0.00 0.00 0.00 67 1006.6
20260504023039 15 247 0.0 0.0 0.00 0.00 0.00 64 1006.6
20260504021520 15 260 0.0 0.0 0.00 0.00 0.00 62 1006.6
20260504020031 16 260 0.0 0.0 0.00 0.00 0.00 60 1006.4
20260504014502 16 250 0.0 0.0 0.00 0.00 0.00 59 1006.3
20260504013002 16 190 0.0 0.0 0.00 0.00 0.00 58 1006.4
20260504011545 16 250 0.0 0.0 0.00 0.00 0.00 57 1006.3
20260504010044 17 249 0.0 0.0 0.00 0.00 0.00 56 1006.3
20260504004531 17 252 0.0 0.0 0.00 0.00 0.00 54 1006.2
20260504003030 18 240 0.0 0.0 0.00 0.00 0.00 52 1006.2
20260504001534 18 269 0.0 0.0 0.00 0.00 0.00 51 1006.4
20260504000027 19 256 0.0 0.0 0.00 0.00 0.00 49 1006.5
20260503234529 19 268 0.0 0.0 0.00 0.00 0.00 48 1006.4
20260503233026 19 237 0.0 0.0 0.00 0.00 0.00 47 1006.5
20260503231528 19 240 0.0 0.0 0.00 0.00 0.00 46 1006.6
20260503230036 19 253 0.0 0.0 0.00 0.00 0.00 45 1006.8
20260503224506 19 313 0.0 0.0 0.00 0.00 0.00 45 1006.9
20260503223006 20 229 0.0 0.0 0.00 0.00 0.00 44 1006.8
20260503221611 20 269 0.0 0.0 0.00 0.00 0.00 44 1006.9
20260503220047 20 263 0.0 0.0 0.00 0.00 0.00 43 1006.8
20260503214546 20 256 0.0 0.0 0.00 0.00 0.00 43 1006.9
20260503213026 20 255 0.0 0.0 0.00 0.00 0.00 44 1007.0
20260503211523 18 173 0.0 0.0 0.00 0.00 0.00 45 1007.1
20260503210006 18 219 0.0 0.0 0.00 0.00 0.00 43 1007.4
20260503204503 18 278 0.0 0.0 0.00 0.00 0.00 44 1007.7
20260503203045 19 213 0.0 0.0 0.00 0.00 0.00 43 1007.9
20260503201540 18 249 0.0 0.0 0.00 0.00 0.00 44 1008.2
20260503200020 18 69 0.0 0.0 0.00 0.00 0.00 44 1008.5
20260503194518 18 188 0.0 0.0 0.00 0.00 0.00 43 1008.8
20260503193115 17 216 0.0 0.0 0.00 0.00 0.00 44 1009.1
20260503191611 17 182 0.0 0.0 0.00 0.00 0.00 43 1009.2
20260503190037 17 274 0.0 0.0 0.00 0.00 0.00 41 1009.3
20260503184635 17 238 0.0 0.0 0.00 0.00 0.00 42 1009.6
20260503183014 17 225 0.0 0.0 0.00 0.00 0.00 47 1009.9
20260503181510 16 84 0.0 0.0 0.00 0.00 0.00 49 1010.4
20260503180057 15 228 0.0 0.0 0.00 0.00 0.00 52 1011.1
20260503174552 15 246 0.0 0.0 0.00 0.00 0.00 55 1011.4
20260503173023 13 161 0.0 0.0 0.00 0.00 0.00 59 1011.9
20260503171519 13 135 0.0 0.0 0.00 0.00 0.00 60 1012.4
20260503170117 12 144 0.0 0.0 0.00 0.00 0.00 61 1012.7
20260503081512 5 265 0.0 0.0 0.00 0.00 0.00 72 1015.4
20260503080103 5 103 0.0 0.0 0.00 0.00 0.00 72 1015.4
20260503071531 6 235 0.0 0.0 0.00 0.00 0.00 69 1015.6
20260503054608 6 188 0.0 0.0 0.00 0.00 0.00 66 1016.5
20260503053051 6 194 0.0 0.0 0.00 0.00 0.00 66 1016.5
20260503051549 6 164 0.0 0.0 0.00 0.00 0.00 66 1016.7
20260503050047 6 164 0.0 0.0 0.00 0.00 0.00 65 1016.7
20260503044547 7 277 0.0 0.0 0.00 0.00 0.00 64 1016.8
20260503043038 7 344 0.0 0.0 0.00 0.00 0.00 64 1016.8
20260503041528 7 344 0.0 0.0 0.00 0.00 0.00 64 1016.9
20260503040008 7 343 0.0 0.0 0.00 0.00 0.00 65 1016.9